Location: Unspecified
(0.0000°N, 0.0000°E)
Time: 19:44:03
(UTC+00:00)

TITAN 3C DEB (INTERSTAGE - Visible Passes

Search period start: 14 January 2025 00:00
Search period end: 24 January 2025 00:00
Orbit: 7955 x 111548 km, 18.5° (Epoch: 15 January)

Date Brightness Start Highest point End Pass type
(mag) Time Alt. Az. Time Alt. Az. Time Alt. Az.
14 Jan ? 10:44:22 10° ENE 16:27:34 79° N 22:05:38 10° W visible
16 Jan ? 10:43:14 10° ENE 16:25:28 79° N 22:03:27 10° W visible
18 Jan ? 10:41:49 10° ENE 16:23:17 80° N 22:01:18 10° W visible
20 Jan ? 10:40:08 10° ENE 16:21:02 80° N 21:59:14 10° W visible
22 Jan ? 10:38:16 10° ENE 16:18:45 80° N 21:57:17 10° W visible
